sat.trackr.live / text

‹ back to catalog

STARLINK-31097

NORAD 58718 · 2024-002P

PAYLOAD ACTIVE UNKNOWN

§ Identity

Operator
Country
US
Launch date
2024-01-03
Launch site
AFWTR
Launch vehicle
Mass (kg)
RCS (m²)

Purposes: comms

External: N2YO · Heavens-Above · Gunter

§ Orbital elements

Epoch: 2026-05-25T05:27:30.972384Z

Period
94.11 min
Inclination
53.1600°
Eccentricity
0.0001022
Mean motion
15.30191177 rev/d
Perigee alt
474.5 km
Apogee alt
475.9 km
Semi-major
6,853.4 km
B*
4.0119e-5
RAAN
234.4186°
Arg perigee
100.3420°
Mean anomaly
259.7696°
Rev number
13,373

§ Raw data

STARLINK-310971 58718U 24002P   26145.22744181  .00000829  00000+0  40119-4 0  99912 58718  53.1600 234.4186 0001022 100.3420 259.7696 15.30191177133735

JSON: /api/v1/satellites/58718 · /tle

For live sub-satellite position, see the globe view (requires WebGL).

§ Visibility from observer

Set your observer location to see the next 7 days of passes ≥ 10°. The values pass through the URL so the page stays shareable.

No JS? Fill the form by hand. The geolocation button needs JavaScript.